Location: B?ogocice
(50.2413°N, 20.2361°E)
Time: 02:39:32
(UTC+00:00)

ALOS - Pass Details

Date: 27 September 2024
Orbit: 670 x 673 km, 98.0° (Epoch: 04 October)

Event Time Altitude Azimuth Distance (km) Brightness Sun altitude
Rises 03:12:47 0° 0° (N) 3,030 5.8 -13.6°
Reaches altitude 10° 03:15:56 10° 337° (NNW) 2,111 4.7 -13.1°
Maximum altitude 03:18:24 15° 305° (NW) 1,815 4.1 -12.7°
Enters shadow 03:19:26 14° 290° (WNW) 1,867 4.0 -12.6°
